Weather History for PAHL - January, 2014

Change the Weather History Date:

Monday, January 20, 2014

  Actual Average Record
Temperature  
Mean Temperature 22 °F -  
Max Temperature 26 °F - - ()
Min Temperature 17 °F - - ()
Degree Days  
Heating Degree Days 44    
Moisture  
Dew Point 15 °F    
Average Humidity 75    
Maximum Humidity 86    
Minimum Humidity 64    
Precipitation  
Precipitation 0.00 in - - ()
Sea Level Pressure  
Sea Level Pressure 29.68 in    
Wind  
Wind Speed 18 mph (ENE)    
Max Wind Speed 26 mph    
Max Gust Speed 36 mph    
Visibility 10 miles    
Events      
T = Trace of Precipitation, MM = Missing Value Source: NWS Daily Summary

Daily Weather History Graph

Daily Weather History Graph

Search for Another Location

Airport or City:

Trip Planner

Search our weather history database for the weather conditions in past years. The results will help you decide how hot, cold, wet, or windy it might be!

Date:

Astronomy

Jan. 20, 2014 Rise Set
Actual Time 10:57 AM AKST 4:16 PM AKST
Civil Twilight 9:46 AM AKST 5:27 PM AKST
Nautical Twilight 8:38 AM AKST 6:35 PM AKST
Astronomical Twilight 7:38 AM AKST 7:35 PM AKST
Moon 11:26 PM AKST (1/20) 10:49 AM AKST (1/20)
Length of Visible Light 7h 41m
Length of Day
5h 19m
Waning Gibbous, 81% of the Moon is Illuminated
Jan 20
Waning Gibbous
Jan 23
Last Quarter
Jan 30
New
Feb 6
First Quarter
Feb 14
Full

Hourly Weather History & Observations

Time (AKST) Temp. Windchill Dew Point Humidity Pressure Visibility Wind Dir Wind Speed Gust Speed Precip Events Conditions
12:16 AM 17.6 °F 3.2 °F 12.2 °F 79% 29.80 in 10.0 mi ENE 15.0 mph - N/A   Overcast
12:36 AM 17.6 °F 1.7 °F 14.0 °F 86% 29.80 in 10.0 mi East 18.4 mph - N/A   Mostly Cloudy
12:56 AM 17.6 °F 2.7 °F 12.2 °F 79% 29.79 in 10.0 mi ENE 16.1 mph 25.3 mph N/A   Partly Cloudy
1:16 AM 17.6 °F 1.7 °F 12.2 °F 79% 29.79 in 10.0 mi ENE 18.4 mph 21.9 mph N/A   Clear
1:36 AM 17.6 °F 3.2 °F 12.2 °F 79% 29.77 in 10.0 mi ENE 15.0 mph 23.0 mph N/A   Clear
1:56 AM 17.6 °F 2.7 °F 12.2 °F 79% 29.77 in 10.0 mi ENE 16.1 mph 21.9 mph N/A   Clear
2:16 AM 17.6 °F 2.7 °F 12.2 °F 79% 29.77 in 10.0 mi ENE 16.1 mph 20.7 mph N/A   Clear
2:36 AM 17.6 °F 2.7 °F 12.2 °F 79% 29.76 in 10.0 mi ENE 16.1 mph 21.9 mph N/A   Scattered Clouds
2:56 AM 19.4 °F 5.5 °F 14.0 °F 80% 29.76 in 10.0 mi ENE 15.0 mph - N/A   Mostly Cloudy
3:16 AM 19.4 °F 4.5 °F 14.0 °F 80% 29.75 in 10.0 mi ENE 17.3 mph 21.9 mph N/A   Overcast
3:36 AM 19.4 °F 4.5 °F 14.0 °F 80% 29.74 in 10.0 mi ENE 17.3 mph 24.2 mph N/A   Overcast
3:56 AM 19.4 °F 4.5 °F 15.8 °F 86% 29.74 in 10.0 mi ENE 17.3 mph 21.9 mph N/A   Overcast
4:16 AM 21.2 °F 6.8 °F 14.0 °F 74% 29.74 in 10.0 mi ENE 17.3 mph 21.9 mph N/A   Overcast
4:36 AM 21.2 °F 7.3 °F 14.0 °F 74% 29.74 in 10.0 mi ENE 16.1 mph 24.2 mph N/A   Overcast
4:56 AM 21.2 °F 6.8 °F 14.0 °F 74% 29.74 in 10.0 mi ENE 17.3 mph 25.3 mph N/A   Overcast
5:16 AM 21.2 °F 6.8 °F 14.0 °F 74% 29.73 in 10.0 mi East 17.3 mph 24.2 mph N/A   Overcast
5:36 AM 21.2 °F 7.3 °F 15.8 °F 80% 29.73 in 10.0 mi ENE 16.1 mph 21.9 mph N/A   Overcast
5:56 AM 21.2 °F 6.8 °F 14.0 °F 74% 29.73 in 10.0 mi ENE 17.3 mph 26.5 mph N/A   Overcast
6:16 AM 21.2 °F 6.8 °F 14.0 °F 74% 29.73 in 10.0 mi ENE 17.3 mph 28.8 mph N/A   Overcast
6:36 AM 19.4 °F 3.6 °F 12.2 °F 74% 29.72 in 10.0 mi East 19.6 mph 26.5 mph N/A   Mostly Cloudy
6:56 AM 19.4 °F 4.5 °F 14.0 °F 80% 29.72 in 10.0 mi ENE 17.3 mph 23.0 mph N/A   Partly Cloudy
7:16 AM 19.4 °F 5.0 °F 14.0 °F 80% 29.71 in 10.0 mi ENE 16.1 mph 26.5 mph N/A   Clear
7:36 AM 19.4 °F 3.6 °F 14.0 °F 80% 29.71 in 10.0 mi ENE 19.6 mph 28.8 mph N/A   Clear
7:56 AM 19.4 °F 2.8 °F 14.0 °F 80% 29.71 in 10.0 mi East 21.9 mph 26.5 mph N/A   Clear
8:16 AM 19.4 °F 5.0 °F 14.0 °F 80% 29.71 in 10.0 mi East 16.1 mph 26.5 mph N/A   Clear
8:36 AM 19.4 °F 4.1 °F 14.0 °F 80% 29.70 in 10.0 mi ENE 18.4 mph 25.3 mph N/A   Clear
8:56 AM 19.4 °F 4.5 °F 14.0 °F 80% 29.71 in 10.0 mi ENE 17.3 mph 26.5 mph N/A   Partly Cloudy
9:16 AM 21.2 °F 7.3 °F 15.8 °F 80% 29.71 in 10.0 mi ENE 16.1 mph 23.0 mph N/A   Scattered Clouds
9:36 AM 21.2 °F 6.0 °F 15.8 °F 80% 29.70 in 10.0 mi ENE 19.6 mph 26.5 mph N/A   Mostly Cloudy
9:56 AM 21.2 °F 6.4 °F 15.8 °F 80% 29.70 in 10.0 mi ENE 18.4 mph 24.2 mph N/A   Overcast
10:16 AM 21.2 °F 5.6 °F 15.8 °F 80% 29.68 in 10.0 mi ENE 20.7 mph 28.8 mph N/A   Overcast
10:36 AM 21.2 °F 6.4 °F 17.6 °F 86% 29.69 in 10.0 mi East 18.4 mph 25.3 mph N/A   Mostly Cloudy
10:56 AM 21.2 °F 5.6 °F 15.8 °F 80% 29.70 in 10.0 mi East 20.7 mph 27.6 mph N/A   Clear
11:16 AM 21.2 °F 6.8 °F 15.8 °F 80% 29.70 in 10.0 mi East 17.3 mph 26.5 mph N/A   Clear
11:36 AM 21.2 °F 6.0 °F 15.8 °F 80% 29.70 in 10.0 mi East 19.6 mph 28.8 mph N/A   Scattered Clouds
11:56 AM 21.2 °F 6.4 °F 15.8 °F 80% 29.70 in 10.0 mi ENE 18.4 mph 27.6 mph N/A   Mostly Cloudy
12:16 PM 21.2 °F 4.9 °F 15.8 °F 80% 29.70 in 10.0 mi ENE 23.0 mph 33.4 mph N/A   Mostly Cloudy
12:36 PM 21.2 °F 6.0 °F 15.8 °F 80% 29.69 in 10.0 mi ENE 19.6 mph 27.6 mph N/A   Partly Cloudy
12:56 PM 21.2 °F 5.6 °F 15.8 °F 80% 29.69 in 10.0 mi ENE 20.7 mph 27.6 mph N/A   Clear
1:16 PM 23.0 °F 8.3 °F 15.8 °F 74% 29.68 in 10.0 mi ENE 19.6 mph 24.2 mph N/A   Clear
1:36 PM 23.0 °F 8.7 °F 15.8 °F 74% 29.68 in 10.0 mi ENE 18.4 mph 29.9 mph N/A   Clear
1:56 PM 23.0 °F 8.7 °F 15.8 °F 74% 29.69 in 10.0 mi ENE 18.4 mph 25.3 mph N/A   Clear
2:16 PM 24.8 °F 10.0 °F 15.8 °F 69% 29.69 in 10.0 mi East 21.9 mph 26.5 mph N/A   Clear
2:36 PM 24.8 °F 10.0 °F 15.8 °F 69% 29.68 in 10.0 mi ENE 21.9 mph 31.1 mph N/A   Clear
2:56 PM 23.0 °F 7.6 °F 15.8 °F 74% 29.68 in 10.0 mi ENE 21.9 mph 32.2 mph N/A   Clear
3:16 PM 23.0 °F 8.0 °F 15.8 °F 74% 29.67 in 10.0 mi ENE 20.7 mph 28.8 mph N/A   Clear
3:36 PM 24.8 °F 9.6 °F 15.8 °F 69% 29.67 in 10.0 mi ENE 23.0 mph 31.1 mph N/A   Scattered Clouds
3:56 PM 24.8 °F 9.0 °F 15.8 °F 69% 29.67 in 10.0 mi ENE 25.3 mph 33.4 mph N/A   Mostly Cloudy
4:16 PM 24.8 °F 8.7 °F 15.8 °F 69% 29.66 in 10.0 mi ENE 26.5 mph 32.2 mph N/A   Mostly Cloudy
4:36 PM 24.8 °F 10.3 °F 15.8 °F 69% 29.65 in 10.0 mi ENE 20.7 mph 27.6 mph N/A   Overcast
4:56 PM 24.8 °F 9.6 °F 15.8 °F 69% 29.65 in 9.0 mi East 23.0 mph 33.4 mph N/A   Overcast
5:16 PM 24.8 °F 9.6 °F 15.8 °F 69% 29.65 in 10.0 mi East 23.0 mph 32.2 mph N/A   Overcast
5:36 PM 24.8 °F 9.6 °F 15.8 °F 69% 29.65 in 10.0 mi ENE 23.0 mph 34.5 mph N/A   Overcast
5:56 PM 24.8 °F 10.3 °F 15.8 °F 69% 29.63 in 10.0 mi ENE 20.7 mph 35.7 mph N/A   Overcast
6:16 PM 24.8 °F 9.6 °F 15.8 °F 69% 29.63 in 10.0 mi East 23.0 mph 34.5 mph N/A   Overcast
6:36 PM 24.8 °F 9.6 °F 15.8 °F 69% 29.63 in 10.0 mi ENE 23.0 mph 29.9 mph N/A   Overcast
6:56 PM 24.8 °F 10.3 °F 15.8 °F 69% 29.63 in 10.0 mi ENE 20.7 mph 28.8 mph N/A   Overcast
7:16 PM 24.8 °F 9.6 °F 15.8 °F 69% 29.62 in 10.0 mi East 23.0 mph 29.9 mph N/A   Mostly Cloudy
7:36 PM 24.8 °F 10.3 °F 15.8 °F 69% 29.61 in 10.0 mi East 20.7 mph 28.8 mph N/A   Mostly Cloudy
7:56 PM 24.8 °F 10.0 °F 15.8 °F 69% 29.61 in 10.0 mi ENE 21.9 mph 28.8 mph N/A   Mostly Cloudy
8:16 PM 24.8 °F 10.3 °F 15.8 °F 69% 29.60 in 10.0 mi East 20.7 mph 28.8 mph N/A   Mostly Cloudy
8:36 PM 24.8 °F 11.5 °F 15.8 °F 69% 29.60 in 10.0 mi East 17.3 mph 25.3 mph N/A   Overcast
8:56 PM 24.8 °F 11.1 °F 15.8 °F 69% 29.59 in 10.0 mi East 18.4 mph 28.8 mph N/A   Overcast
9:16 PM 24.8 °F 10.7 °F 15.8 °F 69% 29.58 in 10.0 mi East 19.6 mph 27.6 mph N/A   Overcast
9:36 PM 24.8 °F 10.0 °F 15.8 °F 69% 29.57 in 10.0 mi East 21.9 mph 31.1 mph N/A   Overcast
9:56 PM 26.6 °F 13.1 °F 15.8 °F 64% 29.57 in 10.0 mi East 19.6 mph 29.9 mph N/A   Overcast
10:16 PM 26.6 °F 12.7 °F 17.6 °F 69% 29.58 in 10.0 mi East 20.7 mph 29.9 mph N/A   Overcast
10:36 PM 26.6 °F 12.7 °F 17.6 °F 69% 29.58 in 10.0 mi East 20.7 mph 28.8 mph N/A   Overcast
10:56 PM 26.6 °F 15.7 °F 17.6 °F 69% 29.59 in 10.0 mi ENE 12.7 mph 24.2 mph N/A   Overcast
11:16 PM 26.6 °F 14.7 °F 17.6 °F 69% 29.59 in 10.0 mi ENE 15.0 mph 18.4 mph N/A   Overcast
11:36 PM 26.6 °F 14.3 °F 15.8 °F 64% 29.59 in 10.0 mi ENE 16.1 mph 20.7 mph N/A   Overcast
11:56 PM 26.6 °F 15.7 °F 17.6 °F 69% 29.60 in 10.0 mi ENE 12.7 mph - N/A   Overcast